| time (UTC) | temp F | wind direction | speed knots | gust knots | rain 1hr in | rain 24hr in | rain mn in | humidity % | barometer mb |
| 20260507073522 | 65 | 287 | 0.9 | 1.7 | 0.00 | 0.03 | 0.00 | 70 | 1013.2 |
| 20260507072531 | 64 | 222 | 0.9 | 1.7 | 0.00 | 0.03 | 0.00 | 72 | 1012.9 |
| 20260507071526 | 63 | 196 | 1.7 | 2.6 | 0.00 | 0.03 | 0.00 | 72 | 1012.9 |
| 20260507070610 | 64 | 244 | 0.9 | 1.7 | 0.00 | 0.03 | 0.00 | 71 | 1012.9 |
| 20260507065522 | 63 | 221 | 0.9 | 2.6 | 0.00 | 0.04 | 0.00 | 71 | 1012.9 |
| 20260507064530 | 64 | 269 | 0.0 | 0.9 | 0.00 | 0.04 | 0.00 | 72 | 1012.6 |
| 20260507063522 | 63 | 258 | 0.9 | 1.7 | 0.00 | 0.05 | 0.00 | 73 | 1012.7 |
| 20260507062530 | 62 | 254 | 0.0 | 0.9 | 0.00 | 0.06 | 0.00 | 79 | 1012.5 |
| 20260507061522 | 61 | 206 | 0.9 | 0.9 | 0.00 | 0.06 | 0.00 | 85 | 1012.5 |
| 20260507060530 | 60 | 222 | 0.9 | 1.7 | 0.00 | 0.06 | 0.00 | 85 | 1012.4 |
| 20260507055522 | 60 | 0.0 | 0.0 | 0.00 | 0.06 | 0.00 | 87 | 1012.4 | |
| 20260507054531 | 59 | 0.0 | 0.0 | 0.00 | 0.06 | 0.00 | 88 | 1012.4 | |
| 20260507053524 | 58 | 0.0 | 0.0 | 0.00 | 0.06 | 0.00 | 89 | 1012.0 | |
| 20260507050723 | 53 | 202 | 0.9 | 0.9 | 0.00 | 0.11 | 0.00 | 94 | 1011.8 |
| 20260507042846 | 51 | 0.0 | 0.0 | 0.00 | 0.27 | 0.00 | 95 | 1011.4 | |
| 20260507041839 | 51 | 228 | 0.9 | 0.9 | 0.00 | 0.28 | 0.00 | 95 | 1011.5 |
| 20260507040827 | 51 | 0.0 | 0.0 | 0.00 | 0.29 | 0.00 | 95 | 1011.2 | |
| 20260507035818 | 51 | 0.0 | 0.0 | 0.00 | 0.29 | 0.00 | 94 | 1011.3 | |
| 20260507034826 | 51 | 0.0 | 0.0 | 0.00 | 0.29 | 0.00 | 94 | 1011.1 | |
| 20260507033818 | 51 | 0.0 | 0.0 | 0.00 | 0.29 | 0.00 | 93 | 1011.1 | |
| 20260507032826 | 51 | 0.0 | 0.0 | 0.00 | 0.29 | 0.00 | 93 | 1011.1 | |
| 20260507031838 | 51 | 0.0 | 0.0 | 0.00 | 0.30 | 0.00 | 93 | 1011.0 | |
| 20260507021732 | 53 | 0.0 | 0.0 | 0.00 | 0.34 | 0.00 | 90 | 1011.0 | |
| 20260507020722 | 54 | 0.0 | 0.0 | 0.00 | 0.37 | 0.00 | 88 | 1011.2 | |
| 20260507020258 | 54 | 0.0 | 0.0 | 0.00 | 0.39 | 0.00 | 88 | 1011.1 | |
| 20260507015818 | 54 | 0.0 | 0.0 | 0.00 | 0.40 | 0.00 | 87 | 1011.1 | |
| 20260507015018 | 54 | 0.0 | 0.0 | 0.00 | 0.44 | 0.00 | 87 | 1011.0 | |
| 20260507014638 | 54 | 0.0 | 0.0 | 0.00 | 0.46 | 0.00 | 87 | 1010.9 | |
| 20260507013626 | 54 | 193 | 1.7 | 1.7 | 0.00 | 0.48 | 0.00 | 87 | 1011.0 |
| 20260507012618 | 54 | 203 | 0.9 | 0.9 | 0.00 | 0.48 | 0.00 | 87 | 1010.9 |
| 20260507011646 | 55 | 213 | 1.7 | 2.6 | 0.00 | 0.49 | 0.00 | 86 | 1010.6 |
| 20260507010531 | 56 | 235 | 0.9 | 0.9 | 0.00 | 0.49 | 0.00 | 85 | 1010.6 |
| 20260507005439 | 56 | 235 | 0.0 | 0.9 | 0.00 | 0.49 | 0.00 | 84 | 1010.5 |
| 20260507004931 | 56 | 235 | 0.0 | 0.9 | 0.00 | 0.49 | 0.00 | 84 | 1010.6 |
| 20260507002426 | 56 | 235 | 0.0 | 0.9 | 0.00 | 0.49 | 0.00 | 82 | 1010.7 |
| 20260507000427 | 57 | 0.0 | 0.0 | 0.00 | 0.49 | 0.00 | 79 | 1010.6 | |
| 20260506235418 | 58 | 221 | 0.9 | 0.9 | 0.00 | 0.49 | 0.00 | 78 | 1010.8 |
| 20260506234427 | 57 | 219 | 1.7 | 1.7 | 0.00 | 0.49 | 0.00 | 79 | 1010.7 |
| 20260506233419 | 57 | 219 | 0.9 | 1.7 | 0.00 | 0.49 | 0.00 | 79 | 1010.6 |
| 20260506232446 | 58 | 238 | 0.9 | 0.9 | 0.00 | 0.49 | 0.00 | 78 | 1010.7 |
| 20260506231419 | 58 | 228 | 0.0 | 0.9 | 0.00 | 0.49 | 0.00 | 77 | 1010.8 |
| 20260506230426 | 58 | 222 | 2.6 | 3.5 | 0.00 | 0.49 | 0.00 | 77 | 1010.6 |
| 20260506225419 | 57 | 219 | 3.5 | 5.2 | 0.00 | 0.49 | 0.00 | 80 | 1010.6 |
| 20260506224426 | 57 | 221 | 2.6 | 2.6 | 0.00 | 0.49 | 0.00 | 83 | 1010.7 |
| 20260506223418 | 57 | 199 | 1.7 | 2.6 | 0.00 | 0.49 | 0.00 | 83 | 1010.5 |
| 20260506222446 | 57 | 200 | 0.9 | 1.7 | 0.00 | 0.49 | 0.00 | 82 | 1010.6 |
| 20260506221419 | 57 | 190 | 0.9 | 0.9 | 0.00 | 0.49 | 0.00 | 82 | 1010.6 |
| 20260506220427 | 58 | 0.0 | 0.0 | 0.00 | 0.49 | 0.00 | 82 | 1010.8 | |
| 20260506215439 | 59 | 250 | 0.9 | 1.7 | 0.00 | 0.49 | 0.49 | 79 | 1010.8 |
| 20260506214426 | 59 | 211 | 3.5 | 5.2 | 0.00 | 0.49 | 0.49 | 80 | 1010.5 |
| 20260506213433 | 59 | 219 | 2.6 | 2.6 | 0.00 | 0.49 | 0.49 | 81 | 1010.6 |
| 20260506212427 | 59 | 195 | 3.5 | 5.2 | 0.00 | 0.49 | 0.49 | 82 | 1010.4 |
| 20260506211418 | 59 | 194 | 4.3 | 6.1 | 0.00 | 0.49 | 0.49 | 83 | 1010.2 |
| 20260506210427 | 59 | 196 | 3.5 | 5.2 | 0.00 | 0.49 | 0.49 | 83 | 1010.2 |
| 20260506205419 | 60 | 179 | 3.5 | 5.2 | 0.00 | 0.49 | 0.49 | 81 | 1010.1 |
| 20260506204426 | 60 | 163 | 2.6 | 3.5 | 0.00 | 0.49 | 0.49 | 81 | 1010.2 |
| 20260506203418 | 60 | 160 | 2.6 | 3.5 | 0.00 | 0.49 | 0.49 | 83 | 1009.9 |
| 20260506202426 | 60 | 191 | 2.6 | 3.5 | 0.00 | 0.49 | 0.49 | 83 | 1009.8 |
| 20260506201419 | 61 | 204 | 2.6 | 6.1 | 0.00 | 0.49 | 0.49 | 84 | 1009.8 |
| 20260506200427 | 61 | 175 | 3.5 | 5.2 | 0.00 | 0.49 | 0.49 | 83 | 1010.0 |
| 20260506195419 | 61 | 194 | 3.5 | 5.2 | 0.00 | 0.49 | 0.49 | 84 | 1009.7 |
| 20260506194427 | 61 | 178 | 3.5 | 6.1 | 0.00 | 0.49 | 0.49 | 85 | 1009.6 |
| 20260506193419 | 62 | 184 | 3.5 | 5.2 | 0.00 | 0.49 | 0.49 | 84 | 1009.2 |
| 20260506192428 | 62 | 181 | 3.5 | 5.2 | 0.00 | 0.49 | 0.49 | 84 | 1009.4 |
| 20260506191418 | 63 | 195 | 1.7 | 1.7 | 0.00 | 0.49 | 0.49 | 85 | 1009.2 |
| 20260506190506 | 63 | 181 | 3.5 | 5.2 | 0.00 | 0.49 | 0.49 | 85 | 1009.0 |
| 20260506185418 | 63 | 174 | 4.3 | 6.1 | 0.00 | 0.49 | 0.49 | 84 | 1008.8 |
| 20260506184426 | 63 | 185 | 4.3 | 6.1 | 0.00 | 0.49 | 0.49 | 84 | 1008.7 |
| 20260506183438 | 63 | 199 | 5.2 | 8.7 | 0.00 | 0.49 | 0.49 | 85 | 1008.8 |
| 20260506182426 | 63 | 190 | 5.2 | 7.8 | 0.00 | 0.49 | 0.49 | 85 | 1008.5 |
| 20260506181419 | 64 | 189 | 3.5 | 5.2 | 0.00 | 0.49 | 0.49 | 85 | 1008.5 |
| 20260506180427 | 64 | 189 | 2.6 | 3.5 | 0.00 | 0.49 | 0.49 | 84 | 1008.4 |
| 20260506175418 | 64 | 135 | 1.7 | 2.6 | 0.00 | 0.49 | 0.49 | 83 | 1008.5 |
| 20260506174426 | 64 | 182 | 3.5 | 5.2 | 0.00 | 0.49 | 0.49 | 83 | 1008.3 |
| 20260506173418 | 65 | 206 | 4.3 | 6.1 | 0.00 | 0.49 | 0.49 | 82 | 1008.1 |
| 20260506172427 | 65 | 205 | 3.5 | 5.2 | 0.00 | 0.49 | 0.49 | 83 | 1008.1 |
| 20260506171459 | 65 | 193 | 1.7 | 1.7 | 0.00 | 0.49 | 0.49 | 83 | 1008.1 |
| 20260506170427 | 66 | 155 | 1.7 | 3.5 | 0.00 | 0.49 | 0.49 | 83 | 1008.0 |
| 20260506165419 | 66 | 161 | 2.6 | 2.6 | 0.00 | 0.49 | 0.49 | 84 | 1007.9 |
| 20260506164426 | 66 | 158 | 1.7 | 2.6 | 0.00 | 0.49 | 0.49 | 83 | 1008.0 |
| 20260506163458 | 67 | 162 | 0.9 | 3.5 | 0.00 | 0.49 | 0.49 | 82 | 1007.9 |
| 20260506162446 | 66 | 203 | 1.7 | 2.6 | 0.00 | 0.49 | 0.49 | 82 | 1008.0 |
| 20260506161419 | 67 | 174 | 2.6 | 5.2 | 0.00 | 0.49 | 0.49 | 82 | 1008.0 |
| 20260506160428 | 67 | 167 | 2.6 | 3.5 | 0.00 | 0.49 | 0.49 | 82 | 1008.1 |
| 20260506155419 | 67 | 191 | 4.3 | 6.1 | 0.00 | 0.49 | 0.49 | 81 | 1007.9 |
| 20260506154427 | 67 | 209 | 4.3 | 6.1 | 0.00 | 0.49 | 0.49 | 80 | 1008.0 |
| 20260506153419 | 67 | 183 | 5.2 | 7.8 | 0.00 | 0.49 | 0.49 | 80 | 1007.9 |
| 20260506152427 | 67 | 146 | 7.0 | 8.7 | 0.00 | 0.49 | 0.49 | 79 | 1008.0 |
| 20260506151440 | 67 | 145 | 3.5 | 5.2 | 0.00 | 0.49 | 0.49 | 80 | 1008.0 |
| 20260506150426 | 67 | 207 | 5.2 | 7.0 | 0.00 | 0.49 | 0.49 | 80 | 1008.0 |
| 20260506145419 | 68 | 166 | 2.6 | 5.2 | 0.00 | 0.49 | 0.49 | 80 | 1007.9 |
| 20260506144426 | 68 | 182 | 3.5 | 5.2 | 0.00 | 0.49 | 0.49 | 82 | 1008.2 |
| 20260506143419 | 68 | 195 | 3.5 | 7.0 | 0.00 | 0.49 | 0.49 | 82 | 1008.2 |
| 20260506142427 | 67 | 168 | 3.5 | 7.0 | 0.00 | 0.49 | 0.49 | 83 | 1008.2 |
| 20260506141419 | 67 | 186 | 5.2 | 7.0 | 0.00 | 0.49 | 0.49 | 84 | 1008.3 |
| 20260506140426 | 66 | 190 | 2.6 | 6.1 | 0.00 | 0.49 | 0.49 | 85 | 1008.3 |
| 20260506135420 | 66 | 213 | 4.3 | 7.0 | 0.00 | 0.49 | 0.49 | 85 | 1008.3 |
| 20260506134428 | 66 | 197 | 3.5 | 6.1 | 0.00 | 0.49 | 0.49 | 86 | 1008.6 |
| 20260506133419 | 65 | 149 | 4.3 | 7.0 | 0.00 | 0.49 | 0.49 | 88 | 1008.6 |
| 20260506132507 | 65 | 182 | 2.6 | 7.0 | 0.00 | 0.49 | 0.49 | 92 | 1008.8 |
| 20260506131420 | 65 | 212 | 3.5 | 5.2 | 0.00 | 0.49 | 0.49 | 93 | 1009.0 |
| 20260506130428 | 64 | 192 | 2.6 | 3.5 | 0.00 | 0.49 | 0.49 | 94 | 1009.0 |
| 20260506125420 | 64 | 230 | 0.9 | 2.6 | 0.00 | 0.49 | 0.49 | 94 | 1008.9 |
| 20260506124827 | 64 | 223 | 2.6 | 3.5 | 0.00 | 0.49 | 0.49 | 94 | 1008.8 |
| 20260506124131 | 63 | 0.0 | 0.0 | 0.00 | 0.49 | 0.49 | 94 | 1008.9 | |
| 20260506115227 | 68 | 172 | 3.5 | 6.1 | 0.00 | 0.49 | 0.49 | 81 | 1008.9 |
| 20260506114259 | 68 | 172 | 4.3 | 7.0 | 0.00 | 0.49 | 0.49 | 82 | 1009.1 |
| 20260506105316 | 66 | 143 | 7.8 | 12.2 | 0.00 | 0.49 | 0.49 | 94 | 1009.2 |
| 20260506104343 | 65 | 141 | 6.1 | 8.7 | 0.00 | 0.49 | 0.49 | 96 | 1009.5 |
| 20260506103331 | 65 | 102 | 4.3 | 6.1 | 0.00 | 0.49 | 0.49 | 98 | 1009.7 |
| 20260506102324 | 64 | 174 | 7.8 | 11.3 | 0.00 | 0.49 | 0.49 | 98 | 1009.7 |
| 20260506101331 | 62 | 110 | 6.1 | 8.7 | 0.01 | 0.49 | 0.49 | 99 | 1009.7 |
| 20260506100323 | 62 | 134 | 3.5 | 5.2 | 0.01 | 0.49 | 0.49 | 99 | 1009.7 |
| 20260506095331 | 62 | 90 | 2.6 | 3.5 | 0.01 | 0.49 | 0.49 | 99 | 1009.6 |
| 20260506094324 | 62 | 124 | 3.5 | 7.0 | 0.01 | 0.49 | 0.49 | 99 | 1009.7 |
| 20260506093332 | 61 | 118 | 4.3 | 7.8 | 0.01 | 0.49 | 0.49 | 99 | 1009.7 |
| 20260506092324 | 61 | 131 | 5.2 | 7.8 | 0.02 | 0.49 | 0.49 | 99 | 1009.9 |
| 20260506091331 | 61 | 134 | 5.2 | 7.8 | 0.01 | 0.48 | 0.48 | 99 | 1010.0 |
| 20260506090324 | 60 | 89 | 4.3 | 7.0 | 0.02 | 0.48 | 0.48 | 99 | 1009.8 |
| 20260506085331 | 60 | 130 | 5.2 | 7.0 | 0.02 | 0.48 | 0.48 | 99 | 1010.0 |
| 20260506084324 | 60 | 173 | 2.6 | 5.2 | 0.02 | 0.48 | 0.48 | 99 | 1010.2 |
| 20260506083331 | 59 | 127 | 3.5 | 7.0 | 0.02 | 0.48 | 0.48 | 99 | 1010.1 |
| 20260506082324 | 59 | 127 | 0.9 | 1.7 | 0.01 | 0.47 | 0.47 | 99 | 1010.0 |
| 20260506081331 | 59 | 114 | 3.5 | 5.2 | 0.01 | 0.47 | 0.47 | 99 | 1009.8 |
| 20260506080324 | 59 | 114 | 2.6 | 3.5 | 0.00 | 0.46 | 0.46 | 99 | 1009.7 |